Time,TemperatureF,DewpointF,PressureIn,WindDirection,WindDirectionDegrees,WindSpeedMPH,WindSpeedGustMPH,Humidity,HourlyPrecipIn,Conditions,Clouds,dailyrainin,SoftwareType,DateUTC
2013-01-21 00:03:00,69.4,58.8,30.06,NNE,16,3.0,5.0,69,0.00,,---,0.00,VWS V14.00,2013-01-21 10:03:00,
2013-01-21 00:08:00,69.4,59.2,30.06,NNE,16,1.0,5.0,70,0.00,,---,0.00,VWS V14.00,2013-01-21 10:08:00,
2013-01-21 00:13:00,69.3,59.1,30.06,NNE,16,0.0,5.0,70,0.00,,---,0.00,VWS V14.00,2013-01-21 10:13:00,
2013-01-21 00:18:00,69.2,59.0,30.06,NNE,14,2.0,5.0,70,0.00,,---,0.00,VWS V14.00,2013-01-21 10:18:00,
2013-01-21 00:23:00,69.2,59.0,30.06,North,11,4.0,9.0,70,0.00,,---,0.00,VWS V14.00,2013-01-21 10:23:00,
2013-01-21 00:28:00,69.3,59.1,30.06,North,11,2.0,9.0,70,0.00,,---,0.00,VWS V14.00,2013-01-21 10:28:00,
2013-01-21 00:33:00,69.2,59.0,30.06,North,11,0.0,1.0,70,0.00,,---,0.00,VWS V14.00,2013-01-21 10:33:00,
2013-01-21 00:38:00,69.2,59.0,30.06,North,11,0.0,5.0,70,0.00,,---,0.00,VWS V14.00,2013-01-21 10:38:00,
2013-01-21 00:43:00,69.2,59.0,30.06,North,11,2.0,5.0,70,0.00,,---,0.00,VWS V14.00,2013-01-21 10:43:00,
2013-01-21 00:48:00,69.3,59.1,30.07,NNE,13,2.0,6.0,70,0.00,,---,0.00,VWS V14.00,2013-01-21 10:48:00,
2013-01-21 00:53:00,69.3,59.1,30.06,NNE,13,0.0,6.0,70,0.00,,---,0.00,VWS V14.00,2013-01-21 10:53:00,
2013-01-21 00:58:00,69.3,59.1,30.06,NNE,15,3.0,6.0,70,0.00,,---,0.00,VWS V14.00,2013-01-21 10:58:00,
2013-01-21 01:03:00,69.3,59.1,30.06,NNE,15,0.0,4.0,70,0.00,,---,0.00,VWS V14.00,2013-01-21 11:03:00,
2013-01-21 01:08:00,69.3,58.7,30.06,North,5,0.0,6.0,69,0.00,,---,0.00,VWS V14.00,2013-01-21 11:08:00,
2013-01-21 01:13:00,69.3,58.7,30.06,North,9,2.0,6.0,69,0.00,,---,0.00,VWS V14.00,2013-01-21 11:13:00,
2013-01-21 01:18:00,69.3,58.7,30.06,NNE,30,6.0,6.0,69,0.00,,---,0.00,VWS V14.00,2013-01-21 11:18:00,
2013-01-21 01:23:00,69.3,58.7,30.06,NNE,30,5.0,6.0,69,0.00,,---,0.00,VWS V14.00,2013-01-21 11:23:00,
2013-01-21 01:28:00,69.4,58.8,30.06,NNE,30,2.0,6.0,69,0.00,,---,0.00,VWS V14.00,2013-01-21 11:28:00,
2013-01-21 01:33:00,69.4,58.8,30.06,NNE,28,2.0,5.0,69,0.00,,---,0.00,VWS V14.00,2013-01-21 11:33:00,
2013-01-21 01:38:00,69.5,59.3,30.07,North,5,1.0,7.0,70,0.00,,---,0.00,VWS V14.00,2013-01-21 11:38:00,
2013-01-21 01:43:00,69.5,58.9,30.06,NE,51,1.0,8.0,69,0.00,,---,0.00,VWS V14.00,2013-01-21 11:43:00,
2013-01-21 01:48:00,69.5,58.9,30.06,NE,40,3.0,8.0,69,0.00,,---,0.00,VWS V14.00,2013-01-21 11:48:00,
2013-01-21 01:53:00,69.5,58.5,30.06,NE,51,1.0,8.0,68,0.00,,---,0.00,VWS V14.00,2013-01-21 11:53:00,
2013-01-21 01:58:00,69.4,58.4,30.06,NE,41,5.0,8.0,68,0.00,,---,0.00,VWS V14.00,2013-01-21 11:58:00,
2013-01-21 02:03:00,69.4,58.8,30.06,North,5,3.0,8.0,69,0.00,,---,0.00,VWS V14.00,2013-01-21 12:03:00,
2013-01-21 02:08:00,69.5,58.9,30.06,NE,48,1.0,8.0,69,0.00,,---,0.00,VWS V14.00,2013-01-21 12:08:00,
2013-01-21 02:13:00,69.4,58.8,30.06,NE,45,3.0,8.0,69,0.00,,---,0.00,VWS V14.00,2013-01-21 12:13:00,
2013-01-21 02:18:00,69.4,58.8,30.06,NE,45,0.0,8.0,69,0.00,,---,0.00,VWS V14.00,2013-01-21 12:18:00,
2013-01-21 02:23:00,69.4,59.2,30.06,NE,45,0.0,8.0,70,0.00,,---,0.00,VWS V14.00,2013-01-21 12:23:00,
2013-01-21 02:28:00,69.5,59.3,30.06,NNE,19,0.0,9.0,70,0.00,,---,0.00,VWS V14.00,2013-01-21 12:28:00,
2013-01-21 02:33:00,69.5,58.9,30.06,NNE,19,1.0,5.0,69,0.00,,---,0.00,VWS V14.00,2013-01-21 12:33:00,
2013-01-21 02:38:00,69.5,58.5,30.05,NNE,22,0.0,5.0,68,0.00,,---,0.00,VWS V14.00,2013-01-21 12:38:00,
2013-01-21 02:43:00,69.4,58.0,30.05,NNE,23,3.0,8.0,67,0.00,,---,0.00,VWS V14.00,2013-01-21 12:43:00,
2013-01-21 02:48:00,69.4,58.4,30.05,NNE,24,0.0,8.0,68,0.00,,---,0.00,VWS V14.00,2013-01-21 12:48:00,
2013-01-21 02:53:00,69.3,58.7,30.06,NE,51,5.0,8.0,69,0.00,,---,0.00,VWS V14.00,2013-01-21 12:53:00,
2013-01-21 02:58:00,69.4,58.8,30.05,ENE,60,1.0,8.0,69,0.00,,---,0.00,VWS V14.00,2013-01-21 12:58:00,
2013-01-21 03:03:00,69.4,58.8,30.06,ENE,61,5.0,5.0,69,0.00,,---,0.00,VWS V14.00,2013-01-21 13:03:00,
2013-01-21 03:08:00,69.4,58.8,30.06,NE,56,4.0,6.0,69,0.00,,---,0.00,VWS V14.00,2013-01-21 13:08:00,
2013-01-21 03:13:00,69.3,59.1,30.06,NE,53,0.0,6.0,70,0.00,,---,0.00,VWS V14.00,2013-01-21 13:13:00,
2013-01-21 03:18:00,69.2,58.6,30.06,NE,53,1.0,6.0,69,0.00,,---,0.00,VWS V14.00,2013-01-21 13:18:00,
2013-01-21 03:23:00,69.1,58.5,30.06,NE,52,4.0,7.0,69,0.00,,---,0.00,VWS V14.00,2013-01-21 13:23:00,
2013-01-21 03:28:00,69.2,59.0,30.06,NE,49,3.0,7.0,70,0.00,,---,0.00,VWS V14.00,2013-01-21 13:28:00,
2013-01-21 03:33:00,69.2,58.6,30.06,East,90,0.0,4.0,69,0.00,,---,0.00,VWS V14.00,2013-01-21 13:33:00,
2013-01-21 03:38:00,69.2,59.0,30.06,NNE,23,3.0,6.0,70,0.00,,---,0.00,VWS V14.00,2013-01-21 13:38:00,
2013-01-21 03:43:00,69.2,59.0,30.06,ENE,73,3.0,7.0,70,0.00,,---,0.00,VWS V14.00,2013-01-21 13:43:00,
2013-01-21 03:48:00,69.4,59.6,30.06,ENE,71,1.0,7.0,71,0.00,,---,0.00,VWS V14.00,2013-01-21 13:48:00,
2013-01-21 03:53:00,69.4,59.6,30.06,NE,51,4.0,8.0,71,0.00,,---,0.00,VWS V14.00,2013-01-21 13:53:00,
2013-01-21 03:58:00,69.4,59.2,30.06,NE,43,3.0,8.0,70,0.00,,---,0.00,VWS V14.00,2013-01-21 13:58:00,
2013-01-21 04:03:00,69.3,58.7,30.06,NNE,30,3.0,6.0,69,0.00,,---,0.00,VWS V14.00,2013-01-21 14:03:00,
2013-01-21 04:08:00,69.3,58.3,30.06,NNE,13,1.0,8.0,68,0.00,,---,0.00,VWS V14.00,2013-01-21 14:08:00,
2013-01-21 04:13:00,69.2,58.2,30.06,NNE,13,0.0,8.0,68,0.00,,---,0.00,VWS V14.00,2013-01-21 14:13:00,
2013-01-21 04:18:00,69.3,58.3,30.06,NNE,21,0.0,8.0,68,0.00,,---,0.00,VWS V14.00,2013-01-21 14:18:00,
2013-01-21 04:23:00,69.2,58.6,30.06,NE,42,0.0,8.0,69,0.00,,---,0.00,VWS V14.00,2013-01-21 14:23:00,
2013-01-21 04:28:00,69.2,58.6,30.06,NNE,31,0.0,8.0,69,0.00,,---,0.00,VWS V14.00,2013-01-21 14:28:00,
2013-01-21 04:33:00,69.2,58.6,30.06,NE,40,1.0,2.0,69,0.00,,---,0.00,VWS V14.00,2013-01-21 14:33:00,
2013-01-21 04:38:00,69.2,58.6,30.06,NE,41,0.0,4.0,69,0.00,,---,0.00,VWS V14.00,2013-01-21 14:38:00,
2013-01-21 04:43:00,69.2,59.0,30.06,NE,48,2.0,6.0,70,0.00,,---,0.00,VWS V14.00,2013-01-21 14:43:00,
2013-01-21 04:48:00,69.2,58.6,30.06,NE,50,1.0,6.0,69,0.00,,---,0.00,VWS V14.00,2013-01-21 14:48:00,
2013-01-21 04:53:00,69.2,58.6,30.06,NNE,32,2.0,6.0,69,0.00,,---,0.00,VWS V14.00,2013-01-21 14:53:00,
2013-01-21 04:58:00,69.3,58.7,30.06,NE,34,3.0,6.0,69,0.00,,---,0.00,VWS V14.00,2013-01-21 14:58:00,
2013-01-21 05:03:00,69.4,58.8,30.06,North,360,2.0,8.0,69,0.00,,---,0.00,VWS V14.00,2013-01-21 15:03:00,
2013-01-21 05:08:00,69.5,58.9,30.06,NNE,15,3.0,8.0,69,0.00,,---,0.00,VWS V14.00,2013-01-21 15:08:00,
2013-01-21 05:13:00,69.6,58.6,30.06,NNE,20,3.0,8.0,68,0.00,,---,0.00,VWS V14.00,2013-01-21 15:13:00,
2013-01-21 05:18:00,69.6,58.6,30.06,NNE,26,2.0,8.0,68,0.00,,---,0.00,VWS V14.00,2013-01-21 15:18:00,
2013-01-21 05:23:00,69.5,58.9,30.07,NE,43,1.0,8.0,69,0.00,,---,0.00,VWS V14.00,2013-01-21 15:23:00,
2013-01-21 05:28:00,69.6,59.0,30.06,NE,53,2.0,8.0,69,0.00,,---,0.00,VWS V14.00,2013-01-21 15:28:00,
2013-01-21 05:33:00,69.5,58.9,30.07,NNE,29,3.0,8.0,69,0.00,,---,0.00,VWS V14.00,2013-01-21 15:33:00,
2013-01-21 05:38:00,69.5,58.9,30.07,NNE,30,3.0,8.0,69,0.00,,---,0.00,VWS V14.00,2013-01-21 15:38:00,
2013-01-21 05:43:00,69.7,58.7,30.07,NNE,22,3.0,8.0,68,0.00,,---,0.00,VWS V14.00,2013-01-21 15:43:00,
2013-01-21 05:48:00,69.9,58.9,30.07,NE,56,7.0,8.0,68,0.00,,---,0.00,VWS V14.00,2013-01-21 15:48:00,
2013-01-21 05:53:00,70.0,59.0,30.07,ENE,60,0.0,8.0,68,0.00,,---,0.00,VWS V14.00,2013-01-21 15:53:00,
2013-01-21 05:58:00,70.2,59.6,30.07,North,360,0.0,8.0,69,0.00,,---,0.00,VWS V14.00,2013-01-21 15:58:00,
2013-01-21 06:03:00,70.3,59.7,30.07,NNE,12,2.0,3.0,69,0.00,,---,0.00,VWS V14.00,2013-01-21 16:03:00,
2013-01-21 06:08:00,70.5,60.3,30.07,North,351,2.0,7.0,70,0.00,,---,0.00,VWS V14.00,2013-01-21 16:08:00,
2013-01-21 06:13:00,70.6,60.3,30.08,North,360,0.0,9.0,70,0.00,,---,0.00,VWS V14.00,2013-01-21 16:13:00,
2013-01-21 06:18:00,70.7,60.8,30.07,North,5,4.0,9.0,71,0.00,,---,0.00,VWS V14.00,2013-01-21 16:18:00,
2013-01-21 06:23:00,70.7,61.2,30.08,NNE,25,2.0,9.0,72,0.00,,---,0.00,VWS V14.00,2013-01-21 16:23:00,
2013-01-21 06:28:00,70.7,61.2,30.08,NE,42,1.0,9.0,72,0.00,,---,0.00,VWS V14.00,2013-01-21 16:28:00,
2013-01-21 06:33:00,70.8,61.3,30.08,NE,53,5.0,8.0,72,0.00,,---,0.00,VWS V14.00,2013-01-21 16:33:00,
2013-01-21 06:38:00,70.8,61.3,30.08,NE,53,3.0,11.0,72,0.00,,---,0.00,VWS V14.00,2013-01-21 16:38:00,
2013-01-21 06:43:00,70.8,61.3,30.09,ENE,59,2.0,12.0,72,0.00,,---,0.00,VWS V14.00,2013-01-21 16:43:00,
2013-01-21 06:48:00,70.7,61.2,30.09,NE,52,0.0,12.0,72,0.00,,---,0.00,VWS V14.00,2013-01-21 16:48:00,
2013-01-21 06:53:00,70.7,61.2,30.09,ENE,78,4.0,12.0,72,0.00,,---,0.00,VWS V14.00,2013-01-21 16:53:00,
2013-01-21 06:58:00,70.7,61.6,30.09,ENE,68,2.0,12.0,73,0.00,,---,0.00,VWS V14.00,2013-01-21 16:58:00,
2013-01-21 07:03:00,70.7,61.6,30.09,NE,54,0.0,0.0,73,0.00,,---,0.00,VWS V14.00,2013-01-21 17:03:00,
2013-01-21 07:08:00,70.8,61.7,30.09,NE,36,1.0,10.0,73,0.00,,---,0.00,VWS V14.00,2013-01-21 17:08:00,
2013-01-21 07:13:00,70.8,61.3,30.09,NE,47,1.0,10.0,72,0.00,,---,0.00,VWS V14.00,2013-01-21 17:13:00,
2013-01-21 07:18:00,70.8,60.9,30.10,NNE,31,1.0,10.0,71,0.00,,---,0.00,VWS V14.00,2013-01-21 17:18:00,
2013-01-21 07:23:00,70.8,61.3,30.10,ENE,59,6.0,10.0,72,0.00,,---,0.00,VWS V14.00,2013-01-21 17:23:00,
2013-01-21 07:28:00,70.9,61.0,30.10,ENE,78,3.0,10.0,71,0.00,,---,0.00,VWS V14.00,2013-01-21 17:28:00,
2013-01-21 07:33:00,71.0,61.1,30.10,ENE,61,2.0,5.0,71,0.00,,---,0.00,VWS V14.00,2013-01-21 17:33:00,
2013-01-21 07:38:00,71.1,61.6,30.10,ENE,77,1.0,11.0,72,0.00,,---,0.00,VWS V14.00,2013-01-21 17:38:00,
2013-01-21 07:43:00,71.0,61.5,30.10,NNE,27,6.0,11.0,72,0.00,,---,0.00,VWS V14.00,2013-01-21 17:43:00,
2013-01-21 07:48:00,71.1,61.2,30.10,NE,53,4.0,11.0,71,0.00,,---,0.00,VWS V14.00,2013-01-21 17:48:00,
2013-01-21 07:53:00,71.1,61.2,30.10,NE,50,0.0,11.0,71,0.00,,---,0.00,VWS V14.00,2013-01-21 17:53:00,
2013-01-21 07:58:00,71.2,60.9,30.11,NNE,26,2.0,11.0,70,0.00,,---,0.00,VWS V14.00,2013-01-21 17:58:00,
2013-01-21 08:03:00,71.2,61.3,30.11,NE,47,2.0,2.0,71,0.00,,---,0.00,VWS V14.00,2013-01-21 18:03:00,
2013-01-21 08:08:00,71.3,61.4,30.11,NE,40,3.0,7.0,71,0.00,,---,0.00,VWS V14.00,2013-01-21 18:08:00,
2013-01-21 08:13:00,71.3,61.0,30.11,NNE,33,3.0,7.0,70,0.00,,---,0.00,VWS V14.00,2013-01-21 18:13:00,
2013-01-21 08:18:00,71.3,59.8,30.11,NE,53,2.0,11.0,67,0.00,,---,0.00,VWS V14.00,2013-01-21 18:18:00,
2013-01-21 08:23:00,71.5,60.0,30.11,ENE,64,2.0,11.0,67,0.00,,---,0.00,VWS V14.00,2013-01-21 18:23:00,
2013-01-21 08:28:00,71.6,60.9,30.12,ENE,77,4.0,12.0,69,0.00,,---,0.00,VWS V14.00,2013-01-21 18:28:00,
2013-01-21 08:33:00,71.6,60.5,30.12,ENE,63,4.0,5.0,68,0.00,,---,0.00,VWS V14.00,2013-01-21 18:33:00,
2013-01-21 08:38:00,71.6,60.5,30.12,ENE,76,7.0,12.0,68,0.00,,---,0.00,VWS V14.00,2013-01-21 18:38:00,
2013-01-21 08:43:00,71.7,60.6,30.12,ENE,60,2.0,12.0,68,0.00,,---,0.00,VWS V14.00,2013-01-21 18:43:00,
2013-01-21 08:48:00,71.7,60.2,30.12,NE,39,1.0,12.0,67,0.00,,---,0.00,VWS V14.00,2013-01-21 18:48:00,
2013-01-21 08:53:00,71.8,59.8,30.12,NE,39,1.0,12.0,66,0.00,,---,0.00,VWS V14.00,2013-01-21 18:53:00,
2013-01-21 08:58:00,71.9,60.4,30.12,NNE,32,0.0,12.0,67,0.00,,---,0.00,VWS V14.00,2013-01-21 18:58:00,
2013-01-21 09:03:00,71.9,60.8,30.13,ENE,57,0.0,3.0,68,0.00,,---,0.00,VWS V14.00,2013-01-21 19:03:00,
2013-01-21 09:08:00,71.9,60.8,30.13,NE,40,1.0,7.0,68,0.00,,---,0.00,VWS V14.00,2013-01-21 19:08:00,
2013-01-21 09:13:00,71.9,61.2,30.13,NE,41,3.0,8.0,69,0.00,,---,0.00,VWS V14.00,2013-01-21 19:13:00,
2013-01-21 09:18:00,71.9,60.8,30.14,North,350,4.0,8.0,68,0.00,,---,0.00,VWS V14.00,2013-01-21 19:18:00,
2013-01-21 09:23:00,72.0,61.3,30.14,North,11,0.0,8.0,69,0.00,,---,0.00,VWS V14.00,2013-01-21 19:23:00,
2013-01-21 09:28:00,72.1,61.4,30.14,East,100,2.0,8.0,69,0.00,,---,0.00,VWS V14.00,2013-01-21 19:28:00,
2013-01-21 09:33:00,72.2,61.1,30.14,NE,44,3.0,4.0,68,0.00,,---,0.00,VWS V14.00,2013-01-21 19:33:00,
2013-01-21 09:38:00,72.4,60.8,30.14,NE,51,6.0,7.0,67,0.00,,---,0.00,VWS V14.00,2013-01-21 19:38:00,
2013-01-21 09:43:00,72.6,61.9,30.14,NE,51,2.0,7.0,69,0.00,,---,0.00,VWS V14.00,2013-01-21 19:43:00,
2013-01-21 09:48:00,73.3,62.1,30.15,NE,44,3.0,10.0,68,0.00,,---,0.00,VWS V14.00,2013-01-21 19:48:00,
2013-01-21 09:53:00,73.6,61.1,30.14,ENE,62,10.0,10.0,65,0.00,,---,0.00,VWS V14.00,2013-01-21 19:53:00,
2013-01-21 09:58:00,73.8,61.3,30.14,NE,53,4.0,11.0,65,0.00,,---,0.00,VWS V14.00,2013-01-21 19:58:00,
2013-01-21 10:03:00,73.9,61.0,30.14,NE,55,2.0,7.0,64,0.00,,---,0.00,VWS V14.00,2013-01-21 20:03:00,
2013-01-21 10:08:00,74.0,61.1,30.14,NNE,16,4.0,11.0,64,0.00,,---,0.00,VWS V14.00,2013-01-21 20:08:00,
2013-01-21 10:13:00,74.3,61.3,30.15,ENE,58,6.0,11.0,64,0.00,,---,0.00,VWS V14.00,2013-01-21 20:13:00,
2013-01-21 10:18:00,74.4,61.4,30.15,East,79,4.0,11.0,64,0.00,,---,0.00,VWS V14.00,2013-01-21 20:18:00,
2013-01-21 10:23:00,74.4,60.5,30.15,NE,35,3.0,11.0,62,0.00,,---,0.00,VWS V14.00,2013-01-21 20:23:00,
2013-01-21 10:28:00,73.8,60.9,30.15,ENE,60,4.0,11.0,64,0.00,,---,0.00,VWS V14.00,2013-01-21 20:28:00,
2013-01-21 10:33:00,73.7,61.2,30.15,NNE,17,6.0,10.0,65,0.00,,---,0.00,VWS V14.00,2013-01-21 20:33:00,
2013-01-21 10:38:00,73.9,60.5,30.14,ENE,66,3.0,10.0,63,0.00,,---,0.00,VWS V14.00,2013-01-21 20:38:00,
2013-01-21 10:43:00,74.3,60.9,30.15,ENE,64,4.0,10.0,63,0.00,,---,0.00,VWS V14.00,2013-01-21 20:43:00,
2013-01-21 10:48:00,74.1,60.7,30.14,North,355,7.0,10.0,63,0.00,,---,0.00,VWS V14.00,2013-01-21 20:48:00,
2013-01-21 10:53:00,73.7,60.8,30.14,ENE,70,3.0,10.0,64,0.00,,---,0.00,VWS V14.00,2013-01-21 20:53:00,
2013-01-21 10:58:00,74.0,61.5,30.14,NNE,22,2.0,10.0,65,0.00,,---,0.00,VWS V14.00,2013-01-21 20:58:00,
2013-01-21 11:03:00,74.4,61.0,30.14,NE,41,1.0,7.0,63,0.00,,---,0.00,VWS V14.00,2013-01-21 21:03:00,
2013-01-21 11:08:00,74.4,61.4,30.14,ENE,62,3.0,10.0,64,0.00,,---,0.00,VWS V14.00,2013-01-21 21:08:00,
2013-01-21 11:13:00,74.6,61.2,30.13,ENE,63,2.0,14.0,63,0.00,,---,0.00,VWS V14.00,2013-01-21 21:13:00,
2013-01-21 11:18:00,74.7,61.3,30.13,ENE,59,7.0,14.0,63,0.00,,---,0.00,VWS V14.00,2013-01-21 21:18:00,
2013-01-21 11:23:00,74.6,61.2,30.13,NNE,13,4.0,14.0,63,0.00,,---,0.00,VWS V14.00,2013-01-21 21:23:00,
2013-01-21 11:28:00,74.4,61.0,30.13,NE,39,3.0,14.0,63,0.00,,---,0.00,VWS V14.00,2013-01-21 21:28:00,
2013-01-21 11:33:00,74.4,61.4,30.12,NE,44,5.0,5.0,64,0.00,,---,0.00,VWS V14.00,2013-01-21 21:33:00,
2013-01-21 11:38:00,74.7,61.7,30.12,NE,44,4.0,11.0,64,0.00,,---,0.00,VWS V14.00,2013-01-21 21:38:00,
2013-01-21 11:43:00,75.3,62.3,30.12,NE,36,1.0,11.0,64,0.00,,---,0.00,VWS V14.00,2013-01-21 21:43:00,
2013-01-21 11:48:00,75.6,61.7,30.12,NNE,26,4.0,11.0,62,0.00,,---,0.00,VWS V14.00,2013-01-21 21:48:00,
2013-01-21 11:53:00,75.5,61.6,30.12,NW,326,8.0,11.0,62,0.00,,---,0.00,VWS V14.00,2013-01-21 21:53:00,
2013-01-21 11:58:00,75.6,61.7,30.12,ENE,70,0.0,11.0,62,0.00,,---,0.00,VWS V14.00,2013-01-21 21:58:00,
2013-01-21 12:03:00,75.5,62.5,30.12,NE,34,2.0,5.0,64,0.00,,---,0.00,VWS V14.00,2013-01-21 22:03:00,
2013-01-21 12:08:00,75.4,62.4,30.12,NE,49,4.0,12.0,64,0.00,,---,0.00,VWS V14.00,2013-01-21 22:08:00,
2013-01-21 12:13:00,74.8,62.3,30.12,ENE,59,5.0,12.0,65,0.00,,---,0.00,VWS V14.00,2013-01-21 22:13:00,
2013-01-21 12:18:00,74.6,61.6,30.11,East,92,5.0,12.0,64,0.00,,---,0.00,VWS V14.00,2013-01-21 22:18:00,
2013-01-21 12:23:00,74.9,62.3,30.11,North,5,6.0,12.0,65,0.00,,---,0.00,VWS V14.00,2013-01-21 22:23:00,
2013-01-21 12:28:00,75.2,62.6,30.11,NE,44,4.0,12.0,65,0.00,,---,0.00,VWS V14.00,2013-01-21 22:28:00,
2013-01-21 12:33:00,75.7,62.2,30.11,ENE,61,4.0,6.0,63,0.00,,---,0.00,VWS V14.00,2013-01-21 22:33:00,
2013-01-21 12:38:00,75.6,62.1,30.11,ENE,66,1.0,10.0,63,0.00,,---,0.00,VWS V14.00,2013-01-21 22:38:00,
2013-01-21 12:43:00,75.5,62.0,30.10,NE,43,6.0,11.0,63,0.00,,---,0.00,VWS V14.00,2013-01-21 22:43:00,
2013-01-21 12:48:00,74.8,61.4,30.10,ENE,61,2.0,13.0,63,0.00,,---,0.00,VWS V14.00,2013-01-21 22:48:00,
2013-01-21 12:53:00,74.6,61.6,30.10,NE,42,11.0,13.0,64,0.00,,---,0.00,VWS V14.00,2013-01-21 22:53:00,
2013-01-21 12:58:00,74.3,61.3,30.10,NE,50,10.0,13.0,64,0.00,,---,0.00,VWS V14.00,2013-01-21 22:58:00,
2013-01-21 13:03:00,74.0,61.1,30.10,NE,56,4.0,5.0,64,0.00,,---,0.00,VWS V14.00,2013-01-21 23:03:00,
2013-01-21 13:08:00,73.8,61.7,30.10,NNE,16,3.0,11.0,66,0.00,,---,0.00,VWS V14.00,2013-01-21 23:08:00,
2013-01-21 13:13:00,74.5,62.4,30.09,NNE,22,3.0,12.0,66,0.00,,---,0.00,VWS V14.00,2013-01-21 23:13:00,
2013-01-21 13:18:00,75.1,62.5,30.09,NE,46,5.0,12.0,65,0.00,,---,0.00,VWS V14.00,2013-01-21 23:18:00,
2013-01-21 13:23:00,75.1,62.1,30.09,East,79,3.0,12.0,64,0.00,,---,0.00,VWS V14.00,2013-01-21 23:23:00,
2013-01-21 13:28:00,75.0,62.5,30.09,ENE,65,5.0,12.0,65,0.00,,---,0.00,VWS V14.00,2013-01-21 23:28:00,
2013-01-21 13:33:00,75.1,62.1,30.08,NE,45,7.0,10.0,64,0.00,,---,0.00,VWS V14.00,2013-01-21 23:33:00,
2013-01-21 13:38:00,74.8,61.8,30.09,NE,50,0.0,12.0,64,0.00,,---,0.00,VWS V14.00,2013-01-21 23:38:00,
2013-01-21 13:43:00,74.5,61.5,30.09,NE,42,4.0,12.0,64,0.00,,---,0.00,VWS V14.00,2013-01-21 23:43:00,
2013-01-21 13:48:00,74.1,62.0,30.08,NNW,328,9.0,12.0,66,0.00,,---,0.00,VWS V14.00,2013-01-21 23:48:00,
2013-01-21 13:53:00,74.0,62.4,30.08,ENE,61,0.0,12.0,67,0.00,,---,0.00,VWS V14.00,2013-01-21 23:53:00,
2013-01-21 13:58:00,73.9,62.3,30.08,NE,38,6.0,12.0,67,0.00,,---,0.00,VWS V14.00,2013-01-21 23:58:00,
2013-01-21 14:03:00,73.7,62.1,30.08,ENE,63,0.0,2.0,67,0.00,,---,0.00,VWS V14.00,2013-01-22 00:03:00,
2013-01-21 14:08:00,73.7,62.1,30.08,SE,134,0.0,12.0,67,0.00,,---,0.00,VWS V14.00,2013-01-22 00:08:00,
2013-01-21 14:13:00,73.8,62.2,30.08,NE,34,1.0,12.0,67,0.00,,---,0.00,VWS V14.00,2013-01-22 00:13:00,
2013-01-21 14:21:00,74.1,62.5,30.08,ENE,67,5.0,12.0,67,0.00,,---,0.00,VWS V14.00,2013-01-22 00:21:00,
2013-01-21 14:26:00,74.2,62.5,30.08,NE,56,4.0,12.0,67,0.00,,---,0.00,VWS V14.00,2013-01-22 00:26:00,
2013-01-21 14:31:00,74.2,62.5,30.07,NE,35,0.0,12.0,67,0.00,,---,0.00,VWS V14.00,2013-01-22 00:31:00,
2013-01-21 14:36:00,74.1,62.5,30.08,NNE,25,3.0,10.0,67,0.00,,---,0.00,VWS V14.00,2013-01-22 00:36:00,
2013-01-21 14:41:00,74.0,62.8,30.08,NE,45,5.0,10.0,68,0.00,,---,0.00,VWS V14.00,2013-01-22 00:41:00,
2013-01-21 14:46:00,74.0,63.2,30.07,East,79,6.0,11.0,69,0.00,,---,0.00,VWS V14.00,2013-01-22 00:46:00,
2013-01-21 14:51:00,74.0,62.8,30.07,NE,36,0.0,11.0,68,0.00,,---,0.00,VWS V14.00,2013-01-22 00:51:00,
2013-01-21 14:56:00,74.1,62.9,30.07,NE,46,4.0,11.0,68,0.00,,---,0.00,VWS V14.00,2013-01-22 00:56:00,
2013-01-21 15:01:00,74.0,61.9,30.07,NE,48,1.0,11.0,66,0.00,,---,0.00,VWS V14.00,2013-01-22 01:01:00,
2013-01-21 15:06:00,74.1,61.6,30.07,NE,55,2.0,11.0,65,0.00,,---,0.00,VWS V14.00,2013-01-22 01:06:00,
2013-01-21 15:11:00,74.0,61.5,30.08,East,87,4.0,11.0,65,0.00,,---,0.00,VWS V14.00,2013-01-22 01:11:00,
2013-01-21 15:16:00,74.0,61.1,30.07,ENE,70,2.0,11.0,64,0.00,,---,0.00,VWS V14.00,2013-01-22 01:16:00,
2013-01-21 15:21:00,73.9,61.0,30.07,NE,42,0.0,11.0,64,0.00,,---,0.00,VWS V14.00,2013-01-22 01:21:00,
2013-01-21 15:26:00,73.8,61.3,30.07,ENE,61,2.0,11.0,65,0.00,,---,0.00,VWS V14.00,2013-01-22 01:26:00,
2013-01-21 15:31:00,73.8,61.7,30.07,NNE,19,0.0,11.0,66,0.00,,---,0.00,VWS V14.00,2013-01-22 01:31:00,
2013-01-21 15:36:00,73.8,62.6,30.07,North,10,1.0,5.0,68,0.00,,---,0.00,VWS V14.00,2013-01-22 01:36:00,
2013-01-21 15:41:00,73.8,62.6,30.07,North,11,4.0,5.0,68,0.00,,---,0.00,VWS V14.00,2013-01-22 01:41:00,
2013-01-21 15:46:00,73.7,62.9,30.07,ENE,59,3.0,11.0,69,0.00,,---,0.00,VWS V14.00,2013-01-22 01:46:00,
2013-01-21 15:51:00,73.5,63.1,30.07,NE,38,9.0,11.0,70,0.00,,---,0.00,VWS V14.00,2013-01-22 01:51:00,
2013-01-21 15:56:00,73.4,63.0,30.07,NE,34,3.0,11.0,70,0.00,,---,0.00,VWS V14.00,2013-01-22 01:56:00,
2013-01-21 16:01:00,73.4,63.4,30.07,NE,36,0.0,11.0,71,0.00,,---,0.00,VWS V14.00,2013-01-22 02:01:00,
2013-01-21 16:06:00,73.3,62.9,30.07,NNE,14,2.0,10.0,70,0.00,,---,0.00,VWS V14.00,2013-01-22 02:06:00,
2013-01-21 16:11:00,73.4,63.4,30.07,NE,51,4.0,10.0,71,0.00,,---,0.00,VWS V14.00,2013-01-22 02:11:00,
2013-01-21 16:16:00,73.4,63.0,30.07,NNE,27,4.0,10.0,70,0.00,,---,0.00,VWS V14.00,2013-01-22 02:16:00,
2013-01-21 16:21:00,73.3,63.3,30.07,East,88,3.0,10.0,71,0.00,,---,0.00,VWS V14.00,2013-01-22 02:21:00,
2013-01-21 16:26:00,73.2,63.2,30.07,NE,34,1.0,10.0,71,0.00,,---,0.00,VWS V14.00,2013-01-22 02:26:00,
2013-01-21 16:31:00,73.2,63.2,30.07,ENE,70,4.0,10.0,71,0.00,,---,0.00,VWS V14.00,2013-01-22 02:31:00,
2013-01-21 16:36:00,73.1,63.5,30.07,North,9,1.0,7.0,72,0.00,,---,0.00,VWS V14.00,2013-01-22 02:36:00,
2013-01-21 16:41:00,73.1,63.5,30.07,NNE,30,6.0,10.0,72,0.00,,---,0.00,VWS V14.00,2013-01-22 02:41:00,
2013-01-21 16:46:00,73.1,63.5,30.08,NE,42,4.0,10.0,72,0.00,,---,0.00,VWS V14.00,2013-01-22 02:46:00,
2013-01-21 16:51:00,73.1,63.5,30.08,NNE,19,1.0,10.0,72,0.00,,---,0.00,VWS V14.00,2013-01-22 02:51:00,
2013-01-21 16:56:00,73.1,63.9,30.08,NNE,25,2.0,10.0,73,0.00,,---,0.00,VWS V14.00,2013-01-22 02:56:00,
2013-01-21 17:01:00,72.9,63.8,30.08,ENE,61,3.0,13.0,73,0.00,,---,0.00,VWS V14.00,2013-01-22 03:01:00,
2013-01-21 17:06:00,72.8,63.7,30.08,ENE,72,2.0,10.0,73,0.00,,---,0.00,VWS V14.00,2013-01-22 03:06:00,
2013-01-21 17:11:00,72.8,64.0,30.08,ENE,70,2.0,10.0,74,0.00,,---,0.00,VWS V14.00,2013-01-22 03:11:00,
2013-01-21 17:16:00,72.9,64.1,30.08,East,83,3.0,10.0,74,0.00,,---,0.00,VWS V14.00,2013-01-22 03:16:00,
2013-01-21 17:21:00,72.9,64.1,30.08,ENE,76,2.0,10.0,74,0.00,,---,0.00,VWS V14.00,2013-01-22 03:21:00,
2013-01-21 17:26:00,72.8,63.7,30.08,ENE,63,2.0,10.0,73,0.00,,---,0.00,VWS V14.00,2013-01-22 03:26:00,
2013-01-21 17:31:00,72.8,63.3,30.08,ENE,63,2.0,10.0,72,0.00,,---,0.00,VWS V14.00,2013-01-22 03:31:00,
2013-01-21 17:36:00,72.8,62.0,30.08,ENE,65,1.0,4.0,69,0.00,,---,0.00,VWS V14.00,2013-01-22 03:36:00,
2013-01-21 17:41:00,72.8,61.2,30.08,NNE,32,4.0,9.0,67,0.00,,---,0.00,VWS V14.00,2013-01-22 03:41:00,
2013-01-21 17:46:00,72.9,60.9,30.08,ENE,57,3.0,12.0,66,0.00,,---,0.00,VWS V14.00,2013-01-22 03:46:00,
2013-01-21 17:51:00,72.9,61.3,30.09,NE,51,3.0,12.0,67,0.00,,---,0.00,VWS V14.00,2013-01-22 03:51:00,
2013-01-21 17:56:00,72.9,61.7,30.09,NNE,32,7.0,12.0,68,0.00,,---,0.00,VWS V14.00,2013-01-22 03:56:00,
2013-01-21 18:01:00,72.8,61.2,30.09,NE,51,1.0,12.0,67,0.00,,---,0.00,VWS V14.00,2013-01-22 04:01:00,
2013-01-21 18:06:00,72.7,61.1,30.09,NE,56,0.0,7.0,67,0.00,,---,0.00,VWS V14.00,2013-01-22 04:06:00,
2013-01-21 18:11:00,72.6,61.0,30.09,NE,55,4.0,10.0,67,0.00,,---,0.00,VWS V14.00,2013-01-22 04:11:00,
2013-01-21 18:16:00,72.6,61.4,30.09,NE,42,2.0,10.0,68,0.00,,---,0.00,VWS V14.00,2013-01-22 04:16:00,
2013-01-21 18:21:00,72.5,61.8,30.09,NE,52,5.0,10.0,69,0.00,,---,0.00,VWS V14.00,2013-01-22 04:21:00,
2013-01-21 18:26:00,72.5,62.2,30.09,NE,34,0.0,10.0,70,0.00,,---,0.00,VWS V14.00,2013-01-22 04:26:00,
2013-01-21 18:31:00,72.5,62.2,30.09,NE,34,2.0,10.0,70,0.00,,---,0.00,VWS V14.00,2013-01-22 04:31:00,
2013-01-21 18:36:00,72.4,62.5,30.09,NE,55,2.0,8.0,71,0.00,,---,0.00,VWS V14.00,2013-01-22 04:36:00,
2013-01-21 18:41:00,72.2,61.9,30.10,NE,54,3.0,8.0,70,0.00,,---,0.00,VWS V14.00,2013-01-22 04:41:00,
2013-01-21 18:46:00,72.1,61.8,30.10,ENE,60,2.0,11.0,70,0.00,,---,0.00,VWS V14.00,2013-01-22 04:46:00,
2013-01-21 18:51:00,72.0,62.1,30.10,NE,50,0.0,11.0,71,0.00,,---,0.00,VWS V14.00,2013-01-22 04:51:00,
2013-01-21 18:56:00,71.9,62.0,30.10,NE,50,0.0,11.0,71,0.00,,---,0.00,VWS V14.00,2013-01-22 04:56:00,
2013-01-21 19:00:00,71.8,62.3,30.10,NE,54,0.0,11.0,72,0.00,,---,0.00,VWS V14.00,2013-01-22 05:00:00,
2013-01-21 19:01:00,71.8,62.3,30.10,NE,54,0.0,11.0,72,0.00,,---,0.00,VWS V14.00,2013-01-22 05:01:00,
2013-01-21 19:06:00,71.7,61.8,30.10,NE,46,3.0,6.0,71,0.00,,---,0.00,VWS V14.00,2013-01-22 05:06:00,
2013-01-21 19:11:00,71.7,61.8,30.10,ENE,61,3.0,6.0,71,0.00,,---,0.00,VWS V14.00,2013-01-22 05:11:00,
2013-01-21 19:16:00,71.7,61.8,30.11,ENE,63,3.0,6.0,71,0.00,,---,0.00,VWS V14.00,2013-01-22 05:16:00,
2013-01-21 19:21:00,71.6,61.3,30.11,ENE,63,0.0,6.0,70,0.00,,---,0.00,VWS V14.00,2013-01-22 05:21:00,
2013-01-21 19:26:00,71.6,61.3,30.11,ENE,61,1.0,6.0,70,0.00,,---,0.00,VWS V14.00,2013-01-22 05:26:00,
2013-01-21 19:31:00,71.6,61.3,30.11,ENE,77,0.0,9.0,70,0.00,,---,0.00,VWS V14.00,2013-01-22 05:31:00,
2013-01-21 19:36:00,71.7,61.4,30.11,ENE,71,3.0,11.0,70,0.00,,---,0.00,VWS V14.00,2013-01-22 05:36:00,
2013-01-21 19:41:00,71.8,61.5,30.11,NNE,24,4.0,11.0,70,0.00,,---,0.00,VWS V14.00,2013-01-22 05:41:00,
2013-01-21 19:46:00,71.8,61.9,30.12,NNE,28,0.0,11.0,71,0.00,,---,0.00,VWS V14.00,2013-01-22 05:46:00,
2013-01-21 19:51:00,71.8,61.9,30.11,NE,51,3.0,11.0,71,0.00,,---,0.00,VWS V14.00,2013-01-22 05:51:00,
2013-01-21 19:56:00,71.9,62.0,30.12,NNE,13,3.0,11.0,71,0.00,,---,0.00,VWS V14.00,2013-01-22 05:56:00,
2013-01-21 20:01:00,71.9,62.0,30.12,NNE,24,3.0,11.0,71,0.00,,---,0.00,VWS V14.00,2013-01-22 06:01:00,
2013-01-21 20:06:00,72.0,62.5,30.12,ENE,58,6.0,7.0,72,0.00,,---,0.00,VWS V14.00,2013-01-22 06:06:00,
2013-01-21 20:11:00,72.0,62.1,30.12,ENE,73,1.0,11.0,71,0.00,,---,0.00,VWS V14.00,2013-01-22 06:11:00,
2013-01-21 20:16:00,71.9,62.0,30.12,ENE,68,0.0,11.0,71,0.00,,---,0.00,VWS V14.00,2013-01-22 06:16:00,
2013-01-21 20:21:00,71.9,62.4,30.12,ENE,64,2.0,11.0,72,0.00,,---,0.00,VWS V14.00,2013-01-22 06:21:00,
2013-01-21 20:26:00,71.8,62.3,30.12,ENE,63,0.0,11.0,72,0.00,,---,0.00,VWS V14.00,2013-01-22 06:26:00,
2013-01-21 20:31:00,71.9,62.8,30.12,ENE,71,0.0,11.0,73,0.00,,---,0.00,VWS V14.00,2013-01-22 06:31:00,
2013-01-21 20:36:00,71.9,62.8,30.12,ENE,71,3.0,5.0,73,0.00,,---,0.00,VWS V14.00,2013-01-22 06:36:00,
2013-01-21 20:41:00,72.0,63.3,30.12,ENE,66,1.0,7.0,74,0.00,,---,0.00,VWS V14.00,2013-01-22 06:41:00,
2013-01-21 20:46:00,72.1,63.0,30.12,ENE,68,3.0,7.0,73,0.00,,---,0.00,VWS V14.00,2013-01-22 06:46:00,
2013-01-21 20:51:00,72.0,62.9,30.12,NE,44,1.0,8.0,73,0.00,,---,0.00,VWS V14.00,2013-01-22 06:51:00,
2013-01-21 20:56:00,72.0,62.9,30.13,SE,130,0.0,8.0,73,0.00,,---,0.00,VWS V14.00,2013-01-22 06:56:00,
2013-01-21 21:01:00,72.0,63.3,30.13,SE,125,0.0,8.0,74,0.00,,---,0.00,VWS V14.00,2013-01-22 07:01:00,
2013-01-21 21:06:00,72.0,63.3,30.13,ENE,58,3.0,7.0,74,0.00,,---,0.00,VWS V14.00,2013-01-22 07:06:00,
2013-01-21 21:11:00,71.9,63.5,30.13,ENE,57,0.0,7.0,75,0.00,,---,0.00,VWS V14.00,2013-01-22 07:11:00,
2013-01-21 21:16:00,71.8,63.1,30.13,NE,50,5.0,10.0,74,0.00,,---,0.00,VWS V14.00,2013-01-22 07:16:00,
2013-01-21 21:21:00,71.7,63.0,30.13,NE,46,1.0,10.0,74,0.00,,---,0.00,VWS V14.00,2013-01-22 07:21:00,
2013-01-21 21:26:00,71.7,62.6,30.13,ENE,60,2.0,10.0,73,0.00,,---,0.00,VWS V14.00,2013-01-22 07:26:00,
2013-01-21 21:31:00,71.7,63.0,30.14,ENE,59,3.0,10.0,74,0.00,,---,0.00,VWS V14.00,2013-01-22 07:31:00,
2013-01-21 21:36:00,71.6,63.3,30.14,ENE,61,0.0,5.0,75,0.00,,---,0.00,VWS V14.00,2013-01-22 07:36:00,
2013-01-21 21:41:00,71.6,63.3,30.14,ENE,61,1.0,5.0,75,0.00,,---,0.00,VWS V14.00,2013-01-22 07:41:00,
2013-01-21 21:46:00,71.5,63.2,30.14,NE,56,6.0,7.0,75,0.00,,---,0.00,VWS V14.00,2013-01-22 07:46:00,
2013-01-21 21:51:00,71.5,63.2,30.14,NE,53,0.0,7.0,75,0.00,,---,0.00,VWS V14.00,2013-01-22 07:51:00,
2013-01-21 21:56:00,71.5,63.2,30.14,NE,50,0.0,7.0,75,0.00,,---,0.00,VWS V14.00,2013-01-22 07:56:00,
2013-01-21 22:01:00,71.5,63.2,30.14,NE,50,2.0,7.0,75,0.00,,---,0.00,VWS V14.00,2013-01-22 08:01:00,
2013-01-21 22:06:00,71.6,63.6,30.14,NE,55,0.0,8.0,76,0.00,,---,0.00,VWS V14.00,2013-01-22 08:06:00,
2013-01-21 22:11:00,71.6,63.3,30.15,NE,53,5.0,8.0,75,0.00,,---,0.00,VWS V14.00,2013-01-22 08:11:00,
2013-01-21 22:16:00,71.5,63.2,30.14,NE,53,0.0,8.0,75,0.00,,---,0.00,VWS V14.00,2013-01-22 08:16:00,
2013-01-21 22:21:00,71.5,63.2,30.14,NE,51,1.0,8.0,75,0.00,,---,0.00,VWS V14.00,2013-01-22 08:21:00,
2013-01-21 22:26:00,71.4,63.1,30.14,North,355,2.0,9.0,75,0.00,,---,0.00,VWS V14.00,2013-01-22 08:26:00,
2013-01-21 22:31:00,71.4,63.1,30.14,SE,134,1.0,9.0,75,0.00,,---,0.00,VWS V14.00,2013-01-22 08:31:00,
2013-01-21 22:36:00,71.4,63.1,30.14,ENE,66,1.0,7.0,75,0.00,,---,0.00,VWS V14.00,2013-01-22 08:36:00,
2013-01-21 22:41:00,71.4,63.1,30.14,ESE,113,5.0,7.0,75,0.00,,---,0.00,VWS V14.00,2013-01-22 08:41:00,
2013-01-21 22:46:00,71.4,63.1,30.14,ESE,110,0.0,7.0,75,0.00,,---,0.00,VWS V14.00,2013-01-22 08:46:00,
2013-01-21 22:51:00,71.4,63.5,30.14,NE,36,0.0,7.0,76,0.00,,---,0.00,VWS V14.00,2013-01-22 08:51:00,
2013-01-21 22:56:00,71.4,63.5,30.14,NE,36,0.0,7.0,76,0.00,,---,0.00,VWS V14.00,2013-01-22 08:56:00,
2013-01-21 23:01:00,71.3,63.3,30.14,NE,36,1.0,7.0,76,0.00,,---,0.00,VWS V14.00,2013-01-22 09:01:00,
2013-01-21 23:06:00,71.2,63.3,30.14,NE,50,3.0,7.0,76,0.00,,---,0.00,VWS V14.00,2013-01-22 09:06:00,
2013-01-21 23:11:00,71.2,63.3,30.13,NE,46,0.0,8.0,76,0.00,,---,0.00,VWS V14.00,2013-01-22 09:11:00,
2013-01-21 23:16:00,71.1,63.2,30.13,NE,46,3.0,8.0,76,0.00,,---,0.00,VWS V14.00,2013-01-22 09:16:00,
2013-01-21 23:21:00,71.1,63.2,30.14,NE,38,0.0,8.0,76,0.00,,---,0.00,VWS V14.00,2013-01-22 09:21:00,
2013-01-21 23:26:00,71.1,63.5,30.13,NW,315,2.0,8.0,77,0.00,,---,0.00,VWS V14.00,2013-01-22 09:26:00,
2013-01-21 23:31:00,71.2,63.3,30.13,NNE,14,4.0,8.0,76,0.00,,---,0.00,VWS V14.00,2013-01-22 09:31:00,
2013-01-21 23:36:00,71.1,63.5,30.13,NE,42,3.0,6.0,77,0.00,,---,0.00,VWS V14.00,2013-01-22 09:36:00,
2013-01-21 23:41:00,71.1,63.5,30.13,NE,40,5.0,6.0,77,0.00,,---,0.00,VWS V14.00,2013-01-22 09:41:00,
2013-01-21 23:46:00,71.2,63.6,30.13,NE,50,3.0,11.0,77,0.00,,---,0.00,VWS V14.00,2013-01-22 09:46:00,
2013-01-21 23:51:00,71.3,63.7,30.13,ENE,70,0.0,11.0,77,0.00,,---,0.00,VWS V14.00,2013-01-22 09:51:00,
2013-01-21 23:56:00,71.3,63.3,30.13,ENE,67,2.0,11.0,76,0.00,,---,0.00,VWS V14.00,2013-01-22 09:56:00,